Torrington, WY

1:57 AM MST on December 14, 2017 (GMT -0700)
Torrington Municipal

Weather History for KTOR - January, 2013

Change the Weather History Date:

Sunday, January 6, 2013

  Actual Average Record
Temperature  
Mean Temperature 25 °F 28 °F  
Max Temperature 48 °F 41 °F 63 °F (2006)
Min Temperature 2 °F 14 °F -23 °F (2004)
Degree Days  
Heating Degree Days 40 37  
Month to date heating degree days 253 226  
Since 1 July heating degree days 2735 2982  
Cooling Degree Days 0 0  
Month to date cooling degree days 0 0  
Year to date cooling degree days 0 0  
Moisture  
Dew Point 11 °F    
Average Humidity 62    
Maximum Humidity 91    
Minimum Humidity 33    
Precipitation  
Precipitation 0.00 in 0.01 in 0.01 in (2005)
Month to date precipitation T 0.05  
Year to date precipitation T 0.05  
Sea Level Pressure  
Sea Level Pressure 30.17 in    
Wind  
Wind Speed 3 mph (ENE)    
Max Wind Speed 16 mph    
Max Gust Speed 23 mph    
Visibility 10 miles    
Events      
T = Trace of Precipitation, MM = Missing Value Source: NWS Daily Summary

Daily Weather History Graph

Daily Weather History Graph

Search for Another Location

Airport or City:

Trip Planner

Search our weather history database for the weather conditions in past years. The results will help you decide how hot, cold, wet, or windy it might be!

Date:

Astronomy

Jan. 06, 2013 Rise Set
Actual Time 7:24 AM MST 4:40 PM MST
Civil Twilight 6:53 AM MST 5:12 PM MST
Nautical Twilight 6:18 AM MST 5:47 PM MST
Astronomical Twilight 5:44 AM MST 6:20 PM MST
Moon 1:39 AM MST (1/6) 12:11 PM MST (1/6)
Length of Visible Light 10h 18m
Length of Day
9h 15m
Waning Crescent, 32% of the Moon is Illuminated
Jan 6
Waning Crescent
Jan 11
New
Jan 18
First Quarter
Jan 26
Full
Feb 3
Last Quarter

Hourly Weather History & Observations

Time (MST) Temp. Windchill Dew Point Humidity Pressure Visibility Wind Dir Wind Speed Gust Speed Precip Events Conditions
12:53 AM 9.0 °F 2.4 °F 5.0 °F 84% 30.34 in 10.0 mi NNW 3.5 mph - N/A   Clear
1:53 AM 7.0 °F - 3.9 °F 87% 30.34 in 10.0 mi Calm Calm - N/A   Clear
2:53 AM 5.0 °F - 1.9 °F 87% 30.34 in 10.0 mi Calm Calm - N/A   Clear
3:53 AM 3.9 °F -5.3 °F 1.0 °F 88% 30.33 in 10.0 mi ENE 4.6 mph - N/A   Clear
4:53 AM 3.0 °F -8.0 °F -0.9 °F 84% 30.32 in 10.0 mi East 5.8 mph - N/A   Clear
5:53 AM 3.9 °F -5.3 °F -0.9 °F 80% 30.33 in 10.0 mi ESE 4.6 mph - N/A   Clear
6:53 AM 5.0 °F - 1.0 °F 84% 30.32 in 10.0 mi Calm Calm - N/A   Clear
7:53 AM 3.9 °F -3.4 °F -0.0 °F 84% 30.33 in 10.0 mi NW 3.5 mph - N/A   Clear
8:53 AM 9.0 °F - 5.0 °F 84% 30.29 in 10.0 mi Calm Calm - N/A   Clear
9:53 AM 16.0 °F - 9.0 °F 74% 30.29 in 10.0 mi Calm Calm - N/A   Clear
10:53 AM 25.0 °F - 14.0 °F 63% 30.21 in 10.0 mi Calm Calm - N/A   Clear
11:53 AM 32.0 °F 27.5 °F 14.0 °F 48% 30.16 in 10.0 mi SSE 4.6 mph - N/A   Clear
12:53 PM 39.9 °F 33.9 °F 15.1 °F 36% 30.08 in 10.0 mi SSE 9.2 mph - N/A   Clear
1:53 PM 44.1 °F 40.1 °F 17.1 °F 34% 30.04 in 10.0 mi SE 6.9 mph - N/A   Clear
2:53 PM 46.9 °F - 19.9 °F 34% 30.02 in 10.0 mi SE 5.8 mph - N/A   Clear
3:53 PM 43.0 °F 38.8 °F 24.1 °F 47% 30.04 in 10.0 mi NNE 6.9 mph - N/A   Clear
4:53 PM 37.9 °F 34.4 °F 21.9 °F 53% 30.05 in 10.0 mi WNW 4.6 mph - N/A   Clear
5:53 PM 36.0 °F 30.3 °F 19.0 °F 50% 30.06 in 10.0 mi NW 6.9 mph - N/A   Clear
6:53 PM 30.9 °F 27.5 °F 18.0 °F 59% 30.08 in 10.0 mi Variable 3.5 mph - N/A   Clear
7:53 PM 32.0 °F - 16.0 °F 52% 30.05 in 10.0 mi Calm Calm - N/A   Clear
8:53 PM 30.0 °F - 15.1 °F 54% 30.04 in 10.0 mi Calm Calm - N/A   Clear
9:53 PM 25.0 °F 20.7 °F 15.1 °F 66% 30.04 in 10.0 mi NE 3.5 mph - N/A   Clear
10:53 PM 32.0 °F 28.7 °F 12.9 °F 45% 29.96 in 10.0 mi SSW 3.5 mph - N/A   Clear
11:53 PM 30.9 °F 27.5 °F 14.0 °F 50% 29.96 in 10.0 mi NW 3.5 mph - N/A   Clear